GW0996 Weather Reports


Display with metric or nautical units.
time (UTC)temp
F
wind
direction
speed
MPH
gust
MPH
rain 1hr
in
rain 24hr
in
rain mn
in
humidity
%
barometer
mb
20221001215958 64 353 0.0 5.0 0.00 0.00 0.00 78 1020.8
20221001215458 64 316 2.0 5.0 0.00 0.00 0.00 78 1020.8
20221001214958 64 307 2.0 3.0 0.00 0.00 0.00 79 1020.8
20221001214459 64 335 1.0 3.0 0.00 0.00 0.00 78 1020.8
20221001213947 64 355 2.0 8.0 0.00 0.00 0.00 78 1020.8
20221001213448 64 300 2.0 8.0 0.00 0.00 0.00 78 1020.8
20221001212446 64 288 2.0 3.0 0.00 0.00 0.00 78 1020.8
20221001211945 64 348 0.0 2.0 0.00 0.00 0.00 78 1020.8
20221001211447 64 316 2.0 2.0 0.00 0.00 0.00 78 1020.8
20221001210458 63 321 1.0 3.0 0.00 0.00 0.00 78 1020.8
20221001205947 63 305 2.0 3.0 0.00 0.00 0.00 78 1020.8
20221001205444 63 347 1.0 2.0 0.00 0.00 0.00 78 1020.8
20221001204944 64 320 1.0 2.0 0.00 0.00 0.00 77 1020.8
20221001204444 64 324 2.0 2.0 0.00 0.00 0.00 76 1020.8
20221001203445 64 350 2.0 9.0 0.00 0.00 0.00 76 1020.8
20221001202944 64 280 2.0 9.0 0.00 0.00 0.00 76 1019.8
20221001202444 64 332 2.0 5.0 0.00 0.00 0.00 77 1019.8
20221001201943 64 343 2.0 7.0 0.00 0.00 0.00 76 1019.8
20221001201442 64 322 5.0 10.0 0.00 0.00 0.00 75 1019.8
20221001200942 64 346 2.0 10.0 0.00 0.00 0.00 75 1019.8
20221001200441 64 321 3.0 7.0 0.00 0.00 0.00 74 1019.8
20221001195934 63 317 2.0 8.0 0.00 0.00 0.00 74 1019.8
20221001195424 63 307 2.0 8.0 0.00 0.00 0.00 74 1019.8
20221001194924 63 352 2.0 6.0 0.00 0.00 0.00 74 1019.8
20221001194423 63 338 3.0 8.0 0.00 0.00 0.00 74 1019.8
20221001193922 63 303 4.0 8.0 0.00 0.00 0.00 73 1019.8
20221001193425 63 327 3.0 7.0 0.00 0.00 0.00 73 1019.8
20221001192923 63 313 0.0 5.0 0.00 0.00 0.00 73 1019.8
20221001192422 63 307 4.0 5.0 0.00 0.00 0.00 73 1019.8
20221001191921 63 349 2.0 4.0 0.00 0.00 0.00 73 1019.8
20221001191423 62 317 2.0 5.0 0.00 0.00 0.00 73 1019.8
20221001190922 62 313 2.0 7.0 0.00 0.00 0.00 73 1019.8
20221001190421 62 311 3.0 7.0 0.00 0.00 0.00 72 1019.8
20221001185921 62 346 5.0 5.0 0.00 0.00 0.00 72 1019.8
20221001185421 62 297 5.0 5.0 0.00 0.00 0.00 72 1019.8
20221001184920 62 337 3.0 7.0 0.00 0.00 0.00 73 1019.8
20221001184432 62 326 2.0 7.0 0.00 0.00 0.00 72 1018.8
20221001183920 62 313 2.0 4.0 0.00 0.00 0.00 73 1018.8
20221001182417 62 339 2.0 5.0 0.00 0.00 0.00 72 1019.8
20221001181918 62 319 1.0 5.0 0.00 0.00 0.00 72 1019.8
20221001180919 63 327 2.0 3.0 0.00 0.00 0.00 71 1019.8
20221001180417 63 339 0.0 7.0 0.00 0.00 0.00 69 1019.8
20221001175916 63 332 5.0 7.0 0.00 0.00 0.00 68 1018.8
20221001175415 63 355 2.0 2.0 0.00 0.00 0.00 69 1018.8
20221001174916 63 359 0.0 5.0 0.00 0.00 0.00 70 1018.8
20221001174416 63 33 0.0 5.0 0.00 0.01 0.00 67 1018.8
20221001173914 63 359 0.0 3.0 0.00 0.01 0.00 70 1018.8
20221001173415 63 341 1.0 5.0 0.00 0.01 0.00 70 1018.8
20221001172903 64 336 4.0 8.0 0.00 0.01 0.00 70 1018.8
20221001171902 63 307 2.0 6.0 0.00 0.02 0.00 68 1018.8
20221001171404 62 313 2.0 2.0 0.00 0.02 0.00 73 1017.8
20221001170903 63 357 0.0 2.0 0.00 0.02 0.00 74 1017.8
20221001165852 64 340 0.0 8.0 0.00 0.02 0.00 71 1017.8
20221001165352 64 331 2.0 8.0 0.00 0.02 0.00 66 1017.8
20221001164852 64 336 0.0 3.0 0.00 0.02 0.00 67 1017.8
20221001164352 64 85 0.0 3.0 0.00 0.02 0.00 65 1017.8
20221001163852 65 30 0.0 2.0 0.00 0.02 0.00 65 1017.8
20221001163329 65 34 0.0 7.0 0.00 0.02 0.00 64 1017.8
20221001162829 65 351 2.0 7.0 0.00 0.02 0.00 62 1017.8
20221001162329 65 15 0.0 6.0 0.00 0.02 0.00 61 1017.8
20221001161829 66 0 2.0 6.0 0.00 0.02 0.00 61 1017.8
20221001160830 66 351 0.0 2.0 0.00 0.02 0.00 63 1017.8
20221001160329 66 348 0.0 2.0 0.00 0.02 0.00 62 1017.8
20221001155319 67 357 2.0 4.0 0.00 0.02 0.00 61 1017.8
20221001154819 67 359 0.0 5.0 0.00 0.02 0.00 61 1017.8
20221001154321 67 350 2.0 5.0 0.00 0.02 0.00 59 1017.8
20221001153819 67 0 2.0 6.0 0.00 0.02 0.00 59 1017.8
20221001153319 67 0 0.0 6.0 0.00 0.02 0.00 58 1017.8
20221001152820 68 354 1.0 3.0 0.00 0.02 0.00 58 1016.8
20221001152317 68 37 0.0 3.0 0.00 0.02 0.00 57 1016.8
20221001151318 69 39 0.0 1.0 0.00 0.02 0.00 55 1016.8
20221001150316 69 39 0.0 5.0 0.00 0.02 0.00 53 1016.8
20221001145815 69 39 2.0 5.0 0.00 0.02 0.00 51 1016.8
20221001145321 69 4 1.0 5.0 0.00 0.02 0.00 56 1016.8
20221001144815 69 12 0.0 5.0 0.00 0.02 0.00 57 1016.8
20221001142803 70 30 2.0 2.0 0.00 0.02 0.00 58 1016.8
20221001141803 70 34 0.0 2.0 0.00 0.02 0.00 58 1016.8
20221001141253 70 29 0.0 2.0 0.00 0.02 0.00 61 1016.8
20221001140754 71 43 0.0 2.0 0.00 0.02 0.00 61 1016.8
20221001135737 71 77 0.0 2.0 0.00 0.02 0.00 60 1016.8
20221001135224 70 72 0.0 3.0 0.00 0.02 0.00 60 1016.8
20221001134726 70 31 0.0 5.0 0.00 0.02 0.00 63 1016.8
20221001134225 69 358 1.0 5.0 0.00 0.02 0.00 62 1016.8
20221001133713 69 45 0.0 4.0 0.00 0.02 0.00 65 1016.8
20221001133211 68 343 2.0 5.0 0.00 0.02 0.00 65 1016.8
20221001132711 69 322 2.0 5.0 0.00 0.03 0.00 64 1016.8
20221001132216 69 335 2.0 7.0 0.00 0.04 0.00 64 1016.8
20221001131722 70 316 2.0 7.0 0.00 0.05 0.00 64 1016.8
20221001131207 70 309 3.0 4.0 0.00 0.05 0.00 60 1016.8
20221001130710 69 357 0.0 2.0 0.00 0.05 0.00 64 1016.8
20221001130208 69 29 0.0 3.0 0.00 0.05 0.00 64 1016.8
20221001125702 68 16 0.0 5.0 0.00 0.05 0.00 65 1016.8
20221001125202 68 331 4.0 5.0 0.00 0.05 0.00 64 1016.8
20221001124146 69 305 4.0 6.0 0.00 0.05 0.00 62 1016.8
20221001123136 68 3 1.0 5.0 0.00 0.05 0.00 63 1016.8
20221001122634 69 343 2.0 5.0 0.00 0.05 0.00 62 1016.8
20221001122134 70 322 2.0 5.0 0.00 0.05 0.00 62 1016.8
20221001121636 70 334 0.0 2.0 0.00 0.05 0.00 59 1016.8
20221001121133 70 0 2.0 2.0 0.00 0.05 0.00 59 1016.8
20221001120636 70 10 2.0 5.0 0.00 0.05 0.00 60 1016.8
20221001120145 70 355 2.0 5.0 0.00 0.05 0.00 59 1016.8
20221001115625 69 55 0.0 5.0 0.00 0.05 0.00 61 1016.8
20221001115113 69 64 0.0 7.0 0.00 0.05 0.00 60 1016.8
20221001114604 69 348 2.0 7.0 0.00 0.05 0.00 59 1017.8
20221001114059 70 316 6.0 7.0 0.00 0.05 0.00 57 1017.8
20221001113551 70 320 3.0 14.0 0.00 0.05 0.00 56 1017.8
20221001113049 71 338 2.0 14.0 0.00 0.05 0.00 55 1017.8
20221001112539 72 328 2.0 6.0 0.00 0.05 0.00 53 1017.8
20221001112038 74 11 0.0 3.0 0.00 0.05 0.00 51 1017.8
20221001111524 74 55 0.0 1.0 0.00 0.05 0.00 52 1016.8
20221001111022 74 36 0.0 0.0 0.00 0.05 0.00 53 1016.8
20221001110514 74 60 0.0 2.0 0.00 0.05 0.00 53 1016.8
20221001110011 73 0 0.0 2.0 0.00 0.05 0.00 54 1016.8
20221001105503 72 59 0.0 0.0 0.00 0.05 0.00 54 1016.8
20221001104959 70 82 0.0 0.0 0.00 0.07 0.00 57 1016.8
20221001103947 68 14 0.0 2.0 0.00 0.08 0.00 66 1016.8
20221001103437 69 299 1.0 2.0 0.00 0.08 0.00 67 1016.8
20221001102935 68 28 0.0 3.0 0.00 0.08 0.00 68 1017.8
20221001102425 67 337 0.0 6.0 0.00 0.08 0.00 68 1017.8
20221001100400 69 346 0.0 3.0 0.00 0.08 0.00 69 1017.8
20221001095900 69 14 0.0 3.0 0.00 0.08 0.00 67 1017.8
20221001095348 71 346 2.0 3.0 0.00 0.08 0.00 67 1017.8
20221001094835 71 16 0.0 0.0 0.00 0.08 0.00 60 1017.8
20221001094334 69 52 0.0 5.0 0.00 0.09 0.00 65 1017.8
20221001093824 67 355 0.0 5.0 0.00 0.09 0.00 70 1017.8
20221001092811 66 336 2.0 3.0 0.00 0.09 0.00 69 1017.8
20221001092312 66 347 2.0 3.0 0.00 0.09 0.00 68 1017.8
20221001091324 65 328 0.0 5.0 0.00 0.09 0.00 78 1017.8
20221001090811 65 350 3.0 5.0 0.00 0.09 0.00 77 1017.8
20221001044045 56 349 0.0 0.0 0.00 0.13 0.00 98 1014.8
20221001043548 56 349 0.0 0.0 0.00 0.13 0.00 99 1014.8
20221001043026 56 349 0.0 0.0 0.00 0.13 0.00 98 1014.8
20221001042515 56 349 0.0 0.0 0.00 0.13 0.00 98 1014.8
20221001042012 56 349 0.0 0.0 0.00 0.13 0.00 98 1014.8
20221001041502 57 349 0.0 0.0 0.00 0.13 0.00 98 1014.8
20221001041016 57 349 0.0 0.0 0.00 0.13 0.00 98 1014.8
20221001035950 57 333 0.0 2.0 0.00 0.13 0.00 98 1014.8
20221001035437 57 333 0.0 2.0 0.00 0.13 0.00 98 1014.8
20221001034926 57 7 0.0 0.0 0.00 0.13 0.00 98 1014.8
20221001033913 57 359 0.0 0.0 0.00 0.13 0.00 98 1014.8
20221001033402 56 359 0.0 0.0 0.00 0.13 0.00 98 1014.8
20221001032901 56 359 0.0 0.0 0.00 0.13 0.00 98 1014.8
20221001032348 56 356 0.0 0.0 0.00 0.13 0.00 98 1014.8
20221001031848 56 356 0.0 0.0 0.00 0.13 0.00 98 1014.8
20221001031334 56 356 0.0 0.0 0.00 0.13 0.00 97 1014.8
20221001030824 57 356 0.0 0.0 0.00 0.13 0.00 97 1014.8
20221001030321 57 356 0.0 0.0 0.00 0.13 0.00 97 1014.8
20221001025821 57 346 0.0 0.0 0.00 0.13 0.00 97 1014.8
20221001025319 58 336 0.0 0.0 0.00 0.13 0.00 98 1014.8
20221001024808 58 327 0.0 0.0 0.00 0.13 0.00 97 1014.8
20221001024306 58 0 0.0 0.0 0.00 0.13 0.00 97 1013.8
20221001023759 58 0 0.0 0.0 0.00 0.13 0.00 97 1013.8
20221001023248 58 333 0.0 1.0 0.00 0.13 0.00 97 1013.8
20221001022735 59 316 0.0 0.0 0.00 0.13 0.00 98 1013.8
20221001022231 59 19 0.0 0.0 0.00 0.13 0.00 98 1013.8
20221001021712 59 19 0.0 0.0 0.00 0.13 0.00 98 1013.8
20221001021209 59 19 0.0 0.0 0.00 0.13 0.00 98 1013.8
20221001020116 59 19 0.0 0.0 0.00 0.14 0.00 98 1013.8
20221001015600 59 0 0.0 0.0 0.00 0.14 0.00 98 1013.8
20221001015048 59 19 0.0 0.0 0.00 0.14 0.00 98 1013.8
20221001014037 59 19 0.0 0.0 0.00 0.14 0.00 98 1013.8
20221001013535 59 3 0.0 0.0 0.00 0.14 0.00 97 1013.8
20221001013033 59 3 0.0 0.0 0.00 0.14 0.00 97 1013.8
20221001012534 59 3 0.0 0.0 0.00 0.15 0.00 97 1013.8
20221001011529 59 3 0.0 0.0 0.00 0.19 0.00 97 1013.8
20221001010520 60 344 0.0 0.0 0.00 0.22 0.00 97 1013.8
20221001010007 60 344 0.0 0.0 0.00 0.24 0.00 97 1013.8
20221001005500 60 344 0.0 0.0 0.00 0.24 0.00 97 1013.8
20221001004949 60 344 0.0 0.0 0.00 0.25 0.00 97 1013.8
20221001004437 60 344 0.0 0.0 0.00 0.26 0.00 97 1013.8
20221001003914 60 344 0.0 0.0 0.00 0.26 0.00 97 1013.8
20221001003404 60 344 0.0 0.0 0.00 0.26 0.00 97 1013.8
20221001002902 60 344 0.0 0.0 0.00 0.26 0.00 97 1013.8
20221001002352 60 344 0.0 0.0 0.00 0.26 0.00 97 1013.8
20221001001852 60 344 0.0 0.0 0.00 0.27 0.00 97 1013.8
20221001001340 60 344 0.0 0.0 0.00 0.27 0.00 97 1013.8
20221001000820 60 344 0.0 0.0 0.00 0.28 0.00 97 1013.8
20221001000309 60 344 0.0 0.0 0.00 0.28 0.00 97 1013.8
20220930234750 60 344 0.0 0.0 0.00 0.29 0.00 97 1013.8
20220930233645 60 344 0.0 1.0 0.00 0.32 0.00 97 1013.8
20220930233126 60 344 0.0 0.0 0.00 0.33 0.00 98 1013.8
20220930232623 60 344 0.0 0.0 0.00 0.33 0.00 97 1013.8
20220930232116 60 344 0.0 0.0 0.00 0.34 0.00 97 1013.8
20220930231613 60 344 0.0 0.0 0.00 0.34 0.00 97 1012.8
20220930231104 60 344 0.0 0.0 0.00 0.35 0.00 97 1012.8
20220930230600 60 344 0.0 0.0 0.00 0.37 0.00 97 1012.8
20220930230051 60 344 0.0 0.0 0.00 0.38 0.00 97 1012.8
20220930225547 60 344 0.0 0.0 0.00 0.40 0.00 97 1012.8
20220930225037 60 344 0.0 0.0 0.00 0.41 0.00 97 1012.8
20220930224534 60 344 0.0 0.0 0.00 0.42 0.00 97 1012.8
20220930224026 60 344 0.0 0.0 0.00 0.45 0.00 97 1012.8
20220930223523 60 344 0.0 0.0 0.00 0.46 0.00 97 1012.8
20220930223015 60 344 0.0 0.0 0.00 0.47 0.00 97 1011.8
20220930222513 60 344 0.0 0.0 0.00 0.49 0.00 97 1011.8
20220930222012 60 345 0.0 0.0 0.00 0.50 0.00 97 1011.8
20220930221501 60 344 0.0 0.0 0.00 0.51 0.00 97 1011.8
20220930221001 61 340 0.0 0.0 0.00 0.54 0.00 97 1011.8